[[{"header":{"parameterUnit":"m.s-1","parameterCategory":1,"la1":30.2991,"la2":30.254,"lo1":-89.0895,"lo2":-89.0444,"dy":0.0017,"dx":0.0017,"nx":28,"ny":28,"refTime":"2023-09-20T03:00:00:Z","depth":0,"parameterNumber":2,"parameterNumberName":"U-component_of_WINDS"},"data":[0,0,0,0,0,0,0,0,0,0,0,0,0,0,0,0,0,0,0,0,0,0,0,0,0,0,0,0,0,0,0,0,0,0,0,0,0,0,0,0,0,0,0,0,0,0,0,0,0,0,0,0,0,0,0,0,0,0,-1.9989,-1.9989,0,-2.0014,-2.0014,-2.0015,-1.9971,-1.997,-1.9968,-1.9967,-1.9993,-1.9995,-1.9997,0,0,0,0,0,0,0,0,0,0,0,0,0,-1.9903,-1.9905,-1.9989,-1.9989,-1.9989,-2.0014,-2.0014,-2.0015,-1.9971,-1.9969,-1.9968,-1.9966,-1.9992,-1.9995,-1.9997,0,0,0,0,0,0,0,0,0,0,0,0,0,-1.9936,-1.9906,-1.9989,-1.9971,-1.9969,-2.0014,-2.0014,-2.0015,-1.9972,-1.9969,-1.9967,-1.9965,-1.9991,-1.9994,-1.9997,-2.0061,0,0,-2.0007,-2.0008,0,0,0,0,0,0,0,0,-1.9934,-1.9939,-1.9973,-1.9972,-1.9971,-1.9987,-1.9994,-2.003,-1.9972,-1.9971,-1.9967,-1.9964,-1.9993,-1.9996,-2.0005,-2.0062,-2.0063,-2.0007,-2.0009,-2.001,-2.0011,0,0,0,0,0,0,0,-1.9932,-1.9938,-1.9999,-1.9974,-1.9972,-1.9961,-1.9964,-2.0,-1.9994,-1.9971,-1.9968,-1.9971,-1.9992,-2.0002,-2.0005,-2.0063,-2.0007,-2.001,-2.0012,-2.0013,-2.0174,-2.0176,0,0,0,0,0,0,-1.9932,-1.9936,-1.9998,-1.9999,-1.9946,-1.9965,-1.9967,-1.9984,-1.9993,-1.9993,-1.9973,-1.9969,-1.9998,-2.0002,-2.0006,-2.0081,-2.001,-2.0013,-2.0015,-2.0172,-2.0174,-2.0177,0,0,0,0,0,0,-1.993,-1.9938,-1.9997,-1.9967,-1.9974,-1.9969,-1.9988,-1.9986,-1.9996,-1.9995,-1.9994,-1.9985,-1.9996,-2.0002,-2.0048,-2.0081,-2.0015,-2.0017,-2.0169,-2.0172,-2.0176,-2.0232,0,0,0,0,0,0,-1.9928,-1.9937,-1.9961,-1.9968,-1.9975,-2.0038,-1.999,-1.9988,-2.0002,-1.9997,-2.0006,-2.0005,-1.9995,-2.0043,-2.0051,-2.0084,-2.002,-2.0166,-2.017,-2.0175,-2.0227,-2.0237,-2.0245,0,0,0,0,0,-1.9925,-1.9976,-1.9963,-1.997,-2.0005,-2.004,-2.0044,-2.0031,-2.0005,-2.0029,-2.0028,-2.0005,-2.0077,-2.0048,-2.0056,-2.0092,-2.0163,-2.0169,-2.0174,-2.0222,-2.0235,-2.0245,0,0,0,0,0,0,-1.9973,-1.9976,-1.9962,-2.0016,-2.0028,-2.0032,-2.0062,-2.0045,-2.0064,-2.0059,-2.0042,-2.0044,-2.0094,-2.0097,-2.0066,-2.0154,-2.0116,-2.0123,-2.0149,-2.0161,-2.017,-2.0168,-2.0022,0,0,0,0,0,-1.999,-2.0018,-2.0019,-2.0068,-2.0074,-2.0068,-2.0082,-2.0071,-2.0083,-2.0088,-2.009,-2.0102,-2.0128,-2.0144,-2.0168,-2.0227,-2.0229,-2.0255,-2.0265,-2.0272,-2.0279,-2.0311,-2.0323,-2.0195,-2.0195,-2.0195,0,0,-2.0026,-2.0031,-2.005,-2.0077,-2.0085,-2.0115,-2.0072,-2.0105,-2.0126,-2.0092,-2.0136,-2.0138,-2.0151,-2.0204,-2.0227,-2.0208,-2.0314,-2.0279,-2.0285,-2.0288,-2.0317,-2.033,-2.034,-2.0199,-2.0198,-2.0197,0,0,-2.0106,-2.0112,-2.0153,-2.0162,-2.0175,-2.017,-2.018,-2.0187,-2.0187,-2.023,-2.0206,-2.0231,-2.0275,-2.0285,-2.0296,-2.038,-2.036,-2.0388,-2.0436,-2.0468,-2.0478,-2.0487,-2.0517,-2.0528,-2.0395,-2.0395,-2.0395,0,-2.0148,-2.0191,-2.0176,-2.0211,-2.0224,-2.0195,-2.0236,-2.0246,-2.0265,-2.0275,-2.0253,-2.0308,-2.0314,-2.0369,-2.039,-2.04,-2.0411,-2.0387,-2.0478,-2.0486,-2.0494,-2.0523,-2.0534,-2.0398,-2.0398,-2.0397,-2.0397,0,-2.0243,-2.0273,-2.0305,-2.0325,-2.0341,-2.0379,-2.037,-2.0389,-2.0377,-2.0374,-2.0419,-2.0426,-2.045,-2.0462,-2.0451,-2.0516,-2.0504,-2.048,-2.0442,-2.051,-2.0537,-2.0547,-2.0403,-2.0402,-2.0401,-2.04,0,0,-2.0354,-2.0365,-2.0377,-2.0385,-2.0397,-2.0421,-2.0457,-2.0481,-2.0497,-2.0512,-2.0542,-2.058,-2.0559,-2.0571,-2.0561,-2.0588,-2.0655,-2.0561,-2.0561,-2.0578,-2.0727,-2.0745,-2.0758,-2.0641,-2.0643,-2.0645,-2.0726,0,-2.0433,-2.0496,-2.0484,-2.0546,-2.0574,-2.0547,-2.0579,-2.059,-2.0589,-2.0612,-2.0611,-2.0638,-2.0608,-2.0615,-2.0641,-2.0641,-2.0684,-2.0635,-2.067,-2.0671,-2.0667,-2.0772,-2.079,-2.0867,-2.0736,-2.0738,-2.074,0,-2.0534,-2.0552,-2.0617,-2.0625,-2.0636,-2.0665,-2.0686,-2.0709,-2.0721,-2.0718,-2.0732,-2.0716,-2.0753,-2.0714,-2.0765,-2.0732,-2.0745,-2.0747,-2.075,-2.0753,-2.0709,-2.0777,-2.089,-2.0902,-2.0756,-2.0754,-2.0753,0,-2.0608,-2.0649,-2.0693,-2.0701,-2.0711,-2.0733,-2.0738,-2.0748,-2.0763,-2.0781,-2.079,-2.0813,-2.0825,-2.0843,-2.0834,-2.0806,-2.0886,-2.0847,-2.0885,-2.0886,-2.0903,-2.0902,-2.102,-2.0912,-2.0912,-2.0912,-2.0912,0,-2.0698,-2.0739,-2.0727,-2.0754,-2.0799,-2.0785,-2.0829,-2.0831,-2.084,-2.0868,-2.0846,-2.0872,-2.0858,-2.0883,-2.0876,-2.0919,-2.0925,-2.0924,-2.0922,-2.0926,-2.0926,-2.0934,-2.0929,-2.0915,-2.0914,-2.0914,-2.0913,0,-2.0789,-2.0782,-2.0829,-2.0834,-2.0837,-2.087,-2.0875,-2.09,-2.0897,-2.0932,-2.0939,-2.0935,-2.0964,-2.0956,-2.0987,-2.0983,-2.1037,-2.1028,-2.1033,-2.1031,-2.107,-2.1067,-2.1198,-2.1215,-2.1095,-2.1097,-2.1098,0,-2.0847,-2.0877,-2.0886,-2.0903,-2.091,-2.0937,-2.0952,-2.0939,-2.0956,-2.0972,-2.0996,-2.1022,-2.1043,-2.109,-2.109,-2.1113,-2.1105,-2.1149,-2.1108,-2.1112,-2.1106,-2.1104,-2.1107,-2.1157,-2.1159,-2.116,-2.1161,0,-2.095,-2.0945,-2.0968,-2.099,-2.1009,-2.1026,-2.104,-2.1055,-2.1044,-2.1064,-2.1092,-2.1108,-2.114,-2.1167,-2.1188,-2.1194,-2.1176,-2.1174,-2.1184,-2.1189,-2.119,-2.119,-2.1056,-2.1171,-2.117,-2.1169,-2.1168,-2.1168,-2.1026,-2.1052,-2.1063,-2.1089,-2.1099,-2.1113,-2.1137,-2.1137,-2.1161,-2.1186,-2.1177,-2.121,-2.1221,-2.1249,-2.1257,-2.1283,-2.1266,-2.1281,-2.1285,-2.1289,-2.1294,-2.1186,-2.1287,-2.1286,-2.1286,-2.1286,-2.1286,0,-2.1129,-2.1134,-2.1158,-2.1179,-2.12,-2.1181,-2.1196,-2.1215,-2.1244,-2.1256,-2.1277,-2.131,-2.1336,-2.1338,-2.1362,-2.1383,-2.1375,-2.139,-2.1388,-2.139,-2.1307,-2.1296,-2.1395,-2.1395,-2.1395,-2.1395,-2.1395,-2.1395,-2.1185,-2.1228,-2.1224,-2.1272,-2.1277,-2.1309,-2.132,-2.1333,-2.1342,-2.138,-2.1402,-2.1403,-2.1411,-2.1436,-2.1459,-2.1459,-2.1469,-2.1487,-2.1484,-2.1406,-2.1395,-2.1385,-2.1374,-2.1489,-2.1489,-2.1564,-2.1565,-2.1565]},{"header":{"parameterUnit":"m.s-1","parameterCategory":1,"la1":30.2991,"la2":30.254,"lo1":-89.0895,"lo2":-89.0444,"dy":0.0017,"dx":0.0017,"nx":28,"ny":28,"refTime":"2023-09-20T03:00:00:Z","depth":0,"parameterNumber":3,"parameterNumberName":"V-component_of_WINDS"},"data":[0,0,0,0,0,0,0,0,0,0,0,0,0,0,0,0,0,0,0,0,0,0,0,0,0,0,0,0,0,0,0,0,0,0,0,0,0,0,0,0,0,0,0,0,0,0,0,0,0,0,0,0,0,0,0,0,0,0,4.7606,4.7606,0,4.765,4.7651,4.7651,4.7617,4.7616,4.7614,4.7613,4.7653,4.7655,4.7658,0,0,0,0,0,0,0,0,0,0,0,0,0,4.7485,4.7487,4.7606,4.7606,4.7607,4.765,4.7651,4.7651,4.7617,4.7615,4.7614,4.7612,4.7652,4.7655,4.7658,0,0,0,0,0,0,0,0,0,0,0,0,0,4.7534,4.7488,4.7605,4.7595,4.7595,4.765,4.7651,4.7652,4.7618,4.7615,4.7613,4.7611,4.7651,4.7655,4.7658,4.7725,0,0,4.7669,4.7671,0,0,0,0,0,0,0,0,4.7531,4.7538,4.7596,4.7596,4.7595,4.7626,4.7623,4.7676,4.7618,4.7609,4.7613,4.761,4.7645,4.7649,4.7662,4.7727,4.7728,4.767,4.7672,4.7674,4.7675,0,0,0,0,0,0,0,4.7528,4.7536,4.7623,4.7597,4.7597,4.7586,4.7591,4.7633,4.7639,4.7609,4.7607,4.7613,4.7645,4.7659,4.7663,4.7729,4.767,4.7673,4.7675,4.7677,4.7847,4.7849,0,0,0,0,0,0,4.7526,4.7534,4.7622,4.7624,4.7557,4.759,4.7595,4.7618,4.7638,4.7639,4.7615,4.7611,4.7654,4.7659,4.7664,4.7741,4.7674,4.7677,4.7679,4.7845,4.7848,4.785,0,0,0,0,0,0,4.7524,4.7534,4.762,4.7578,4.7589,4.7595,4.7621,4.762,4.7634,4.7642,4.7643,4.7629,4.7652,4.7659,4.771,4.7742,4.7679,4.7682,4.7842,4.7846,4.7849,4.7896,0,0,0,0,0,0,4.752,4.7534,4.756,4.7579,4.7591,4.7666,4.7623,4.7623,4.7641,4.7637,4.7655,4.7656,4.7651,4.7704,4.7713,4.7746,4.7685,4.7839,4.7844,4.7848,4.7891,4.7901,4.7908,0,0,0,0,0,4.7516,4.7571,4.7562,4.7573,4.7625,4.7668,4.7675,4.7669,4.7644,4.767,4.7675,4.7656,4.7738,4.771,4.772,4.7753,4.7837,4.7842,4.7847,4.7888,4.7899,4.7908,0,0,0,0,0,0,4.7554,4.7574,4.7563,4.7627,4.7646,4.7662,4.7694,4.7682,4.7707,4.7702,4.7693,4.7697,4.7749,4.7757,4.7726,4.7818,4.7783,4.779,4.781,4.7821,4.7829,4.7825,4.7688,0,0,0,0,0,4.757,4.7606,4.762,4.7674,4.7685,4.7689,4.7707,4.7702,4.7721,4.7728,4.7737,4.7754,4.7784,4.7803,4.7831,4.7894,4.7895,4.7922,4.793,4.7937,4.7942,4.7973,4.7984,4.7867,4.7867,4.7867,0,0,4.7603,4.7618,4.7641,4.7682,4.7697,4.7732,4.7695,4.7734,4.7759,4.7733,4.7781,4.7789,4.7807,4.7864,4.7889,4.7871,4.7976,4.7944,4.7949,4.7951,4.798,4.7991,4.8,4.7871,4.787,4.787,0,0,4.7679,4.7696,4.7742,4.7757,4.778,4.7782,4.7793,4.7812,4.7816,4.7864,4.7845,4.7874,4.7926,4.794,4.7953,4.8036,4.8017,4.8045,4.8088,4.8118,4.8127,4.8135,4.8161,4.8171,4.8051,4.8051,4.8051,0,4.7716,4.7769,4.7766,4.7806,4.7824,4.7805,4.7849,4.7864,4.7894,4.7906,4.7887,4.7951,4.7963,4.802,4.804,4.8053,4.8063,4.8041,4.8127,4.8134,4.8142,4.8166,4.8177,4.8054,4.8054,4.8054,4.8053,0,4.7812,4.7849,4.7883,4.7914,4.7936,4.7978,4.7979,4.8002,4.7995,4.7998,4.8046,4.806,4.8089,4.8103,4.8096,4.8159,4.8147,4.8128,4.8092,4.8156,4.8179,4.8188,4.8058,4.8057,4.8056,4.8056,0,0,4.7911,4.7941,4.7953,4.7966,4.799,4.8017,4.8058,4.8089,4.8106,4.8128,4.816,4.8205,4.8186,4.8202,4.8197,4.8224,4.8284,4.82,4.82,4.8212,4.8351,4.8363,4.8374,4.8274,4.8276,4.8277,4.8348,0,4.7986,4.8058,4.8056,4.8122,4.8155,4.8138,4.8172,4.819,4.8194,4.8221,4.8226,4.8256,4.8232,4.824,4.8267,4.8271,4.8311,4.8266,4.83,4.8301,4.8292,4.8386,4.8399,4.8465,4.8357,4.8359,4.836,0,4.8083,4.8109,4.8178,4.8197,4.821,4.8242,4.8268,4.8296,4.8314,4.8315,4.8334,4.8324,4.8362,4.8329,4.838,4.835,4.8364,4.8368,4.837,4.837,4.8332,4.8385,4.8487,4.8495,4.8375,4.8373,4.8372,0,4.8143,4.8196,4.8244,4.8256,4.828,4.8302,4.8312,4.8329,4.8347,4.837,4.8381,4.8408,4.8422,4.8443,4.8439,4.8416,4.8491,4.8457,4.849,4.849,4.8503,4.8502,4.8605,4.8519,4.8519,4.8518,4.8518,0,4.8225,4.8267,4.8272,4.8301,4.8347,4.8344,4.8389,4.8397,4.8413,4.8441,4.8428,4.8455,4.8451,4.8477,4.8475,4.8516,4.8524,4.8523,4.8522,4.8523,4.8522,4.8529,4.8523,4.8521,4.8521,4.852,4.852,0,4.8299,4.8305,4.8355,4.8374,4.8379,4.8412,4.8427,4.8453,4.8457,4.8493,4.8501,4.8507,4.8537,4.8537,4.8571,4.857,4.8619,4.8614,4.8613,4.8611,4.8642,4.8638,4.875,4.8763,4.8672,4.8673,4.8673,0,4.8349,4.8382,4.8404,4.8423,4.8435,4.8466,4.8484,4.8483,4.8502,4.8526,4.8549,4.8579,4.8601,4.865,4.8656,4.8681,4.8674,4.8712,4.8678,4.8677,4.8671,4.8667,4.8669,4.8717,4.8718,4.8719,4.872,0,4.8436,4.8437,4.8465,4.8494,4.8517,4.8539,4.8559,4.8575,4.8576,4.8598,4.8629,4.8648,4.8683,4.8711,4.8736,4.8744,4.8731,4.8731,4.874,4.8739,4.8736,4.8734,4.8627,4.8728,4.8727,4.8726,4.8726,4.8726,4.8498,4.8525,4.8544,4.8575,4.8591,4.8611,4.8636,4.8644,4.867,4.87,4.8697,4.8731,4.8748,4.878,4.8791,4.8816,4.8803,4.8816,4.8818,4.882,4.8822,4.8735,4.8821,4.8821,4.8821,4.8821,4.8821,0,4.8581,4.8593,4.8622,4.8651,4.8675,4.8665,4.8686,4.8706,4.8737,4.8755,4.8778,4.8813,4.884,4.8849,4.8875,4.8893,4.8888,4.89,4.8897,4.8898,4.8835,4.8823,4.8904,4.8904,4.8904,4.8904,4.8904,4.8904,4.8627,4.8671,4.8674,4.8726,4.8737,4.8771,4.8785,4.8801,4.8815,4.8856,4.8879,4.8885,4.8898,4.8925,4.8949,4.8951,4.8959,4.8973,4.8972,4.8911,4.8903,4.8895,4.8884,4.8976,4.8976,4.9033,4.9033,4.9034]}]]